Weather Service Report


662 
ASUS44 KOUN 221310
RWROK 

WEATHER ROUNDUP FOR OKLAHOMA
NATIONAL WEATHER SERVICE NORMAN OK
800 AM CDT WED OCT 22 2014

NOTE: "FAIR" INDICATES FEW OR NO CLOUDS BELOW 12,000 FEET WITH NO
      SIGNIFICANT WEATHER AND/OR OBSTRUCTIONS TO VISIBILITY.

OKZ001>007-009>012-014-015-017-221400-
NORTHWEST OKLAHOMA AND THE PANHANDLE
  
CITY           SKY/WX    TMP DP  RH WIND       PRES   REMARKS
GAGE           PTCLDY    56  50  80 S12       30.08S                  
ENID/WOODRING  CLEAR     54  54 100 SE6       30.10R FOG              
$$

OKZ016-021>023-033>039-044-045-221400-
SOUTHWEST OKLAHOMA
  
CITY           SKY/WX    TMP DP  RH WIND       PRES   REMARKS
LAWTON/REGL    CLEAR     53  51  93 CALM      30.12R FOG              
LAWTON/FT SILL CLEAR     53  52  96 NE2       30.11R                  
FREDERICK      CLEAR     56  51  84 SE5       30.08R                  
CLINTON        CLEAR     56  49  77 S8        30.12S                  
HOBART         CLEAR     57  52  83 S10       30.11R                  
ALTUS AFB      PTCLDY    53  52  97 E5        30.11R                  
$$

OKZ018>020-024>031-221400-
CENTRAL OKLAHOMA
  
CITY           SKY/WX    TMP DP  RH WIND       PRES   REMARKS
OKLAHOMA CITY  CLEAR     55  53  93 SE6       30.13R FOG              
OKC/WILEY POST CLEAR     58  55  90 S6        30.13R FOG              
OKC/TINKER AFB CLEAR     56  55  95 S6        30.13R FOG              
STILLWATER     CLEAR     57  55  93 E3        30.13R FOG              
GUTHRIE        CLEAR     59  56  89 S3        30.13R                  
$$

OKZ008-013-054>072-221400-
NORTHEAST OKLAHOMA
  
CITY           SKY/WX    TMP DP  RH WIND       PRES   REMARKS
TULSA          PTCLDY    58  57  97 SE5       30.14R FOG              
TULSA/JONES    CLEAR     58  57  97 CALM      30.15R FOG              
PONCA CITY     PTCLDY    60  57  89 S5        30.12R                  
BARTLESVILLE   MOCLDY    53  53 100 CALM      30.16R FOG              
MUSKOGEE       PTCLDY    57  54  89 S5        30.17R                  
$$

OKZ032-040>043-046>053-073>077-221400-
SOUTH CENTRAL/SOUTHEAST OKLAHOMA
  
CITY           SKY/WX    TMP DP  RH WIND       PRES   REMARKS
ARDMORE/DWNTWN CLEAR     57  55  94 CALM      30.13R FOG              
MCALESTER      MOCLDY    58  57  97 CALM      30.16R FOG              
$$


Return to Home page


Western Regional Climate Center, wrcc@dri.edu